[[{"header":{"parameterUnit":"m.s-1","parameterCategory":1,"la1":30.2991,"la2":30.254,"lo1":-89.0895,"lo2":-89.0444,"dy":0.0017,"dx":0.0017,"nx":28,"ny":28,"refTime":"2024-05-23T09:00:00:Z","depth":0,"parameterNumber":2,"parameterNumberName":"U-component_of_WINDS"},"data":[0,0,0,0,0,0,0,0,0,0,0,0,0,0,0,0,0,0,0,0,0,0,0,0,0,0,0,0,0,0,0,0,0,0,0,0,0,0,0,0,0,0,0,0,0,0,0,0,0,0,0,0,0,0,0,0,0,0,-1.7291,-1.7291,0,-1.7262,-1.7261,-1.7261,-1.7214,-1.7214,-1.7213,-1.7212,-1.7182,-1.7182,-1.7182,0,0,0,0,0,0,0,0,0,0,0,0,0,-1.731,-1.731,-1.7291,-1.7291,-1.7291,-1.7262,-1.7261,-1.7261,-1.7215,-1.7214,-1.7212,-1.7212,-1.7182,-1.7182,-1.7182,0,0,0,0,0,0,0,0,0,0,0,0,0,-1.7293,-1.731,-1.7292,-1.7264,-1.7261,-1.7262,-1.7261,-1.7261,-1.7215,-1.7213,-1.7212,-1.7211,-1.7182,-1.7182,-1.7182,-1.7208,0,0,-1.7182,-1.7182,0,0,0,0,0,0,0,0,-1.7294,-1.7293,-1.7268,-1.7266,-1.7263,-1.724,-1.7257,-1.7243,-1.7215,-1.7232,-1.7212,-1.721,-1.7203,-1.7201,-1.7198,-1.7206,-1.7205,-1.7182,-1.7182,-1.7182,-1.7183,0,0,0,0,0,0,0,-1.7296,-1.7294,-1.728,-1.7268,-1.7265,-1.7254,-1.725,-1.7254,-1.7225,-1.7231,-1.7227,-1.7224,-1.7201,-1.7198,-1.7197,-1.7205,-1.7182,-1.7182,-1.7183,-1.7183,-1.7233,-1.7235,0,0,0,0,0,0,-1.7301,-1.7295,-1.7281,-1.7279,-1.7276,-1.7255,-1.725,-1.7249,-1.7225,-1.722,-1.7226,-1.7222,-1.7199,-1.7197,-1.7196,-1.7224,-1.7182,-1.7183,-1.7183,-1.7232,-1.7234,-1.7235,0,0,0,0,0,0,-1.7301,-1.73,-1.7282,-1.7286,-1.7283,-1.7256,-1.7254,-1.7249,-1.7246,-1.7221,-1.7216,-1.7228,-1.7198,-1.7196,-1.7205,-1.7223,-1.7183,-1.7183,-1.723,-1.7232,-1.7234,-1.7281,0,0,0,0,0,0,-1.7302,-1.73,-1.7309,-1.7286,-1.7283,-1.7291,-1.7255,-1.7249,-1.7246,-1.7242,-1.7222,-1.7217,-1.7197,-1.7206,-1.7205,-1.7222,-1.7183,-1.7229,-1.7231,-1.7234,-1.7278,-1.7285,-1.729,0,0,0,0,0,-1.7303,-1.7323,-1.731,-1.7308,-1.7293,-1.7292,-1.729,-1.7266,-1.7248,-1.7257,-1.7241,-1.7218,-1.7221,-1.7207,-1.7206,-1.7223,-1.7227,-1.723,-1.7233,-1.7275,-1.7283,-1.729,0,0,0,0,0,0,-1.7349,-1.732,-1.7304,-1.7318,-1.7308,-1.7284,-1.7295,-1.7275,-1.727,-1.7266,-1.7236,-1.7232,-1.7246,-1.7235,-1.722,-1.7247,-1.7221,-1.7224,-1.7253,-1.726,-1.7266,-1.7268,-1.7183,0,0,0,0,0,-1.736,-1.7362,-1.7337,-1.7351,-1.7347,-1.7322,-1.7321,-1.7303,-1.7291,-1.7287,-1.7271,-1.7261,-1.726,-1.726,-1.7257,-1.7277,-1.7272,-1.7288,-1.7294,-1.73,-1.7302,-1.7313,-1.732,-1.7245,-1.7245,-1.7245,0,0,-1.7385,-1.7369,-1.7372,-1.736,-1.735,-1.7353,-1.7319,-1.7322,-1.7324,-1.7287,-1.7295,-1.7284,-1.7271,-1.7286,-1.7291,-1.7277,-1.7322,-1.7303,-1.7308,-1.7308,-1.7316,-1.7324,-1.733,-1.7247,-1.7247,-1.7246,0,0,-1.743,-1.7418,-1.7429,-1.742,-1.7406,-1.7389,-1.7392,-1.7372,-1.7363,-1.737,-1.7343,-1.7345,-1.7343,-1.7335,-1.7331,-1.7375,-1.7354,-1.7375,-1.7407,-1.7417,-1.7423,-1.7428,-1.7444,-1.745,-1.7378,-1.7378,-1.7378,0,-1.7462,-1.7464,-1.7438,-1.7444,-1.744,-1.7407,-1.7419,-1.7411,-1.7397,-1.7395,-1.738,-1.7378,-1.7367,-1.7379,-1.739,-1.7388,-1.7391,-1.7377,-1.7424,-1.7429,-1.7434,-1.7448,-1.7454,-1.7381,-1.7381,-1.738,-1.738,0,-1.7504,-1.7506,-1.7517,-1.7504,-1.7501,-1.751,-1.7486,-1.7487,-1.747,-1.7456,-1.7464,-1.745,-1.7444,-1.7446,-1.743,-1.7457,-1.7449,-1.743,-1.7403,-1.7444,-1.7457,-1.7463,-1.7385,-1.7384,-1.7383,-1.7382,0,0,-1.7576,-1.7549,-1.7554,-1.7548,-1.753,-1.7531,-1.7539,-1.7533,-1.7535,-1.7527,-1.7533,-1.7533,-1.7515,-1.7511,-1.7493,-1.7502,-1.7539,-1.7482,-1.7481,-1.7493,-1.7568,-1.7583,-1.759,-1.7525,-1.7526,-1.7527,-1.7569,0,-1.7618,-1.7629,-1.7606,-1.7623,-1.7625,-1.7595,-1.7602,-1.7592,-1.7579,-1.7579,-1.7565,-1.7566,-1.7542,-1.7539,-1.7547,-1.7533,-1.7553,-1.7529,-1.7531,-1.7531,-1.7534,-1.7597,-1.7611,-1.7652,-1.7575,-1.7575,-1.7576,0,-1.7667,-1.7661,-1.7678,-1.766,-1.766,-1.7667,-1.766,-1.7661,-1.765,-1.764,-1.7635,-1.7615,-1.7622,-1.7597,-1.7607,-1.7591,-1.7591,-1.7584,-1.7585,-1.7584,-1.7556,-1.7597,-1.7664,-1.7671,-1.7584,-1.7583,-1.7583,0,-1.7718,-1.7715,-1.7724,-1.772,-1.7699,-1.7705,-1.7697,-1.7684,-1.7682,-1.7677,-1.7676,-1.7672,-1.767,-1.7667,-1.7647,-1.763,-1.766,-1.7632,-1.7652,-1.7652,-1.7658,-1.7658,-1.7727,-1.7659,-1.7659,-1.7659,-1.7659,0,-1.7766,-1.7778,-1.7747,-1.7753,-1.7765,-1.774,-1.7753,-1.7742,-1.7732,-1.7736,-1.771,-1.7714,-1.7687,-1.7689,-1.7673,-1.7684,-1.7683,-1.7675,-1.7671,-1.7677,-1.7678,-1.7676,-1.7673,-1.7661,-1.766,-1.766,-1.766,0,-1.7825,-1.7805,-1.7813,-1.7793,-1.7789,-1.7799,-1.7782,-1.7787,-1.7773,-1.7778,-1.7778,-1.7756,-1.7757,-1.7736,-1.7733,-1.7722,-1.774,-1.7731,-1.7744,-1.7741,-1.7761,-1.776,-1.7831,-1.7839,-1.7766,-1.7767,-1.7768,0,-1.7857,-1.7865,-1.7846,-1.7847,-1.784,-1.7841,-1.7839,-1.7815,-1.7815,-1.7803,-1.781,-1.7809,-1.7806,-1.7809,-1.7793,-1.7791,-1.7781,-1.7806,-1.7781,-1.7787,-1.7781,-1.7781,-1.7782,-1.7811,-1.7812,-1.7813,-1.7814,0,-1.7916,-1.7906,-1.7904,-1.7899,-1.7898,-1.7893,-1.7886,-1.7889,-1.7862,-1.7863,-1.7864,-1.7862,-1.7859,-1.7858,-1.7853,-1.7845,-1.7825,-1.7822,-1.7826,-1.7833,-1.784,-1.7836,-1.7758,-1.782,-1.782,-1.7819,-1.7819,-1.7819,-1.7962,-1.7968,-1.7956,-1.7955,-1.7948,-1.7943,-1.7947,-1.7933,-1.7933,-1.7928,-1.7914,-1.7917,-1.7907,-1.7898,-1.7892,-1.7895,-1.7882,-1.7889,-1.789,-1.7892,-1.7896,-1.784,-1.7894,-1.7893,-1.7893,-1.7893,-1.7893,0,-1.802,-1.801,-1.801,-1.8002,-1.8002,-1.7983,-1.7975,-1.7976,-1.7979,-1.7971,-1.7969,-1.797,-1.797,-1.7954,-1.7952,-1.7957,-1.7948,-1.7957,-1.7957,-1.7955,-1.7907,-1.7903,-1.7965,-1.7965,-1.7965,-1.7965,-1.7965,-1.7965,-1.805,-1.8059,-1.8048,-1.8054,-1.8045,-1.8047,-1.8044,-1.804,-1.8033,-1.8035,-1.8034,-1.8024,-1.8014,-1.8011,-1.801,-1.8005,-1.8005,-1.8018,-1.801,-1.7965,-1.7958,-1.7952,-1.7948,-1.8018,-1.8018,-1.8058,-1.8059,-1.8059]},{"header":{"parameterUnit":"m.s-1","parameterCategory":1,"la1":30.2991,"la2":30.254,"lo1":-89.0895,"lo2":-89.0444,"dy":0.0017,"dx":0.0017,"nx":28,"ny":28,"refTime":"2024-05-23T09:00:00:Z","depth":0,"parameterNumber":3,"parameterNumberName":"V-component_of_WINDS"},"data":[0,0,0,0,0,0,0,0,0,0,0,0,0,0,0,0,0,0,0,0,0,0,0,0,0,0,0,0,0,0,0,0,0,0,0,0,0,0,0,0,0,0,0,0,0,0,0,0,0,0,0,0,0,0,0,0,0,0,4.2795,4.2795,0,4.2775,4.2775,4.2774,4.2727,4.2726,4.2725,4.2725,4.2705,4.2706,4.2706,0,0,0,0,0,0,0,0,0,0,0,0,0,4.2795,4.2795,4.2795,4.2795,4.2795,4.2775,4.2775,4.2774,4.2728,4.2726,4.2725,4.2724,4.2705,4.2705,4.2706,0,0,0,0,0,0,0,0,0,0,0,0,0,4.2787,4.2795,4.2795,4.2769,4.2766,4.2775,4.2775,4.2774,4.2728,4.2726,4.2725,4.2724,4.2705,4.2705,4.2706,4.2739,0,0,4.2708,4.2708,0,0,0,0,0,0,0,0,4.2787,4.2787,4.2773,4.2771,4.2768,4.2752,4.2767,4.2762,4.2728,4.2743,4.2725,4.2723,4.2722,4.2721,4.2721,4.2738,4.2737,4.2708,4.2708,4.2708,4.2709,0,0,0,0,0,0,0,4.2788,4.2787,4.2787,4.2773,4.277,4.2759,4.2756,4.2766,4.2741,4.2741,4.2738,4.2736,4.272,4.272,4.272,4.2737,4.2708,4.2708,4.2709,4.2709,4.278,4.2782,0,0,0,0,0,0,4.2792,4.2788,4.2788,4.2786,4.2774,4.276,4.2757,4.2759,4.2741,4.2736,4.2737,4.2734,4.272,4.2719,4.2719,4.2756,4.2708,4.2709,4.2709,4.2779,4.278,4.2782,0,0,0,0,0,0,4.2792,4.2792,4.2789,4.2786,4.2785,4.2761,4.2764,4.2759,4.2759,4.2737,4.2733,4.2741,4.2719,4.2718,4.2734,4.2755,4.2709,4.271,4.2777,4.2779,4.2781,4.2831,0,0,0,0,0,0,4.2792,4.2793,4.2805,4.2787,4.2785,4.2804,4.2765,4.276,4.276,4.2755,4.274,4.2736,4.2717,4.2734,4.2735,4.2755,4.271,4.2775,4.2778,4.2781,4.2827,4.2834,4.284,0,0,0,0,0,4.2792,4.282,4.2806,4.2806,4.28,4.2805,4.2804,4.2781,4.2762,4.2773,4.276,4.2737,4.2752,4.2736,4.2737,4.2757,4.2773,4.2777,4.278,4.2824,4.2833,4.284,0,0,0,0,0,0,4.2841,4.2817,4.2801,4.2823,4.2816,4.2797,4.2812,4.2792,4.2791,4.2787,4.2759,4.2756,4.2776,4.2768,4.275,4.2788,4.2759,4.2763,4.2792,4.28,4.2807,4.2808,4.2711,0,0,0,0,0,4.2854,4.286,4.2839,4.2861,4.2858,4.2836,4.2837,4.282,4.2812,4.2809,4.2797,4.2791,4.2794,4.2797,4.2799,4.2826,4.2822,4.284,4.2847,4.2853,4.2856,4.287,4.2878,4.2793,4.2793,4.2793,0,0,4.2881,4.2869,4.2875,4.287,4.2863,4.287,4.2834,4.2843,4.2848,4.2811,4.2825,4.2816,4.2807,4.2829,4.2838,4.2823,4.2879,4.2857,4.2862,4.2862,4.2874,4.2882,4.2889,4.2796,4.2795,4.2795,0,0,4.2935,4.2926,4.2943,4.2937,4.2926,4.2911,4.2915,4.2899,4.2891,4.2905,4.2877,4.2883,4.289,4.2884,4.2883,4.2935,4.2913,4.2936,4.2971,4.2985,4.2991,4.2997,4.3015,4.3022,4.294,4.294,4.294,0,4.297,4.298,4.2955,4.2965,4.2964,4.2931,4.2948,4.2943,4.2934,4.2934,4.2918,4.2925,4.2917,4.2936,4.2949,4.2949,4.2953,4.2937,4.2992,4.2998,4.3003,4.302,4.3027,4.2943,4.2942,4.2942,4.2942,0,4.3024,4.3031,4.3046,4.3037,4.3038,4.3052,4.3029,4.3033,4.3016,4.3003,4.3018,4.3006,4.3005,4.3009,4.2993,4.3027,4.3018,4.2997,4.2968,4.3014,4.303,4.3036,4.2947,4.2946,4.2945,4.2944,0,0,4.3107,4.3084,4.309,4.3086,4.3072,4.3077,4.309,4.3088,4.3092,4.3087,4.3097,4.3103,4.3084,4.3082,4.3065,4.3077,4.3119,4.3055,4.3055,4.3067,4.3155,4.3171,4.3179,4.3105,4.3106,4.3107,4.3156,0,4.3157,4.3177,4.3154,4.3179,4.3185,4.3154,4.3165,4.3158,4.3146,4.315,4.3136,4.3141,4.3116,4.3114,4.3125,4.3112,4.3136,4.3108,4.3114,4.3115,4.3117,4.3187,4.3203,4.325,4.3162,4.3163,4.3164,0,4.3218,4.3215,4.324,4.3225,4.3226,4.3237,4.3233,4.3237,4.3229,4.3219,4.3217,4.3197,4.3208,4.318,4.3196,4.3177,4.3178,4.3172,4.3173,4.3173,4.3142,4.3188,4.3264,4.3271,4.3173,4.3172,4.3172,0,4.3276,4.3278,4.3294,4.3291,4.3273,4.3281,4.3274,4.3264,4.3265,4.3262,4.3262,4.3262,4.3261,4.3261,4.3241,4.3222,4.3259,4.3229,4.3252,4.3252,4.3261,4.326,4.3338,4.3262,4.3262,4.3262,4.3262,0,4.3334,4.335,4.3319,4.3329,4.3347,4.3321,4.334,4.3329,4.3321,4.3328,4.3301,4.3308,4.3281,4.3286,4.327,4.3286,4.3286,4.3278,4.3274,4.3281,4.3282,4.3281,4.3277,4.3264,4.3264,4.3263,4.3263,0,4.3401,4.3381,4.3396,4.3378,4.3373,4.3387,4.3372,4.338,4.3366,4.3376,4.3377,4.3355,4.3359,4.3339,4.334,4.3329,4.3353,4.3343,4.3355,4.3352,4.3376,4.3374,4.3455,4.3465,4.3383,4.3384,4.3385,0,4.3439,4.3451,4.3434,4.3437,4.3431,4.3436,4.3436,4.3412,4.3413,4.3404,4.3414,4.3415,4.3415,4.3423,4.3408,4.3409,4.3398,4.3427,4.3398,4.3405,4.3399,4.3398,4.3399,4.3433,4.3434,4.3435,4.3436,0,4.3509,4.3499,4.35,4.3498,4.3499,4.3496,4.3492,4.3495,4.3469,4.3472,4.3476,4.3476,4.3476,4.3478,4.3475,4.3469,4.3448,4.3445,4.345,4.3457,4.3463,4.346,4.3371,4.3443,4.3442,4.3442,4.3441,4.3441,4.3563,4.3572,4.3561,4.3564,4.3558,4.3554,4.3561,4.3548,4.355,4.3548,4.3534,4.354,4.3531,4.3525,4.352,4.3525,4.3512,4.3519,4.3521,4.3523,4.3527,4.3463,4.3525,4.3524,4.3524,4.3524,4.3524,0,4.3631,4.3623,4.3625,4.3619,4.3621,4.3601,4.3595,4.3598,4.3604,4.3597,4.3598,4.3602,4.3604,4.3589,4.3589,4.3595,4.3586,4.3596,4.3595,4.3594,4.354,4.3535,4.3604,4.3604,4.3604,4.3604,4.3604,4.3604,4.3667,4.3681,4.3669,4.368,4.3672,4.3677,4.3676,4.3672,4.3667,4.3672,4.3674,4.3664,4.3654,4.3653,4.3654,4.3649,4.365,4.3664,4.3656,4.3606,4.3598,4.3591,4.3586,4.3665,4.3665,4.371,4.3711,4.3711]}]]